Home > Weather > Sarh > Past weeks

Flag for Chad Weather for the Past 2 Weeks in Sarh, Chad

Now
84 °F

Passing clouds.


Feels Like: 87 °F
Forecast: 81 / 103 °F
Wind: 7 mph from Northwest

Location: Sarh Airport

Current Time: May 3, 2016 at 7:19:48 PM

Latest Report: May 3, 2016 at 7:00 PM


Visibility: N/A

Pressure: 29.83 "Hg

Humidity: 58%

Dew Point: 68 °F

Location of SarhLocation

Historic Weather in Sarh — Graph

°F

Sarh Temperature Yesterday

Maximum temperature yesterday: 100 °F (at 3:00 PM)
Minimum temperature yesterday: 82 °F (at 1:00 AM)
Average temperature yesterday: 93 °F

High & Low Weather Summary for the Past Weeks

 TemperatureHumidityPressure
High109 °F (Apr 25, 2:00 PM)100% (Apr 19, 5:00 AM)29.98 "Hg (Apr 19, 5:00 AM)
Low70 °F (Apr 19, 5:00 AM)6% (Apr 22, 12:00 PM)29.68 "Hg (Apr 24, 4:00 PM)
Average91 °F49%29.82 "Hg
* Reported Apr 18 4:00 PM — May 3 4:00 PM, Sarh, Weather by CustomWeather, © 2016

Note: Actual official high and low records may vary slightly from our data, if they occured in-between our weather recording intervals... More about our weather records

Advertising

Sarh Weather History for the Previous 24 Hours

Scroll right to see more
 ConditionsComfort  
Time TempWeatherWind HumidityBarometerVisibility
4:00 PM
Tue, May 3
86 °FScattered clouds.16 mph52%29.77 "HgN/A
3:00 PM102 °FPassing clouds.No wind27%29.74 "HgN/A
2:00 PM104 °FPassing clouds.No wind28%29.77 "HgN/A
1:00 PM102 °FPassing clouds.9 mph31%29.83 "HgN/A
12:00 PM100 °FPassing clouds.5 mph33%29.89 "HgN/A
11:00 AM100 °FPassing clouds.10 mph33%29.89 "HgN/A
10:00 AM99 °FSunny.9 mph35%29.89 "Hg10 mi
9:00 AM95 °FSunny.12 mph41%29.92 "Hg10 mi
8:00 AM91 °FSunny.9 mph46%29.89 "Hg10 mi
7:00 AM88 °FSunny.No wind52%29.89 "Hg10 mi
6:00 AM81 °FSunny.No wind66%29.86 "Hg10 mi
5:00 AM82 °FClear.No wind62%29.83 "Hg10 mi
4:00 AM84 °FClear.2 mph51%29.80 "Hg10 mi
1:00 AM84 °FClear.No wind51%29.83 "Hg10 mi
10:00 PM
Mon, May 2
88 °FClear.No wind49%29.83 "Hg10 mi
9:00 PM90 °FClear.No wind49%29.80 "Hg10 mi
Weather by CustomWeather, © 2016

See weather overviewHow to use our weather pages